This is the latest recevied weather packets stored in our database for station/object K6CED. If no packets are shown the sender has not sent any weather packets the latest 10 day(s).
| Time | Temp. | Humidity | Pressure | Rain* | Wind** | Luminosity | Snow |
|---|---|---|---|---|---|---|---|
| 1788244821 | 17.78° C | 82% | 1017.3 hPa | 0 mm | - | 0 W/m² | - |
| 1788244518 | 17.78° C | 82% | 1017.2 hPa | 0 mm | - | 0 W/m² | - |
| 1788244224 | 17.78° C | 82% | 1017.3 hPa | 0 mm | - | 0 W/m² | - |
| 1788243909 | 17.78° C | 82% | 1017.3 hPa | 0 mm | - | 0 W/m² | - |
| 1788243605 | 18.33° C | 83% | 1017.3 hPa | 0 mm | - | 0 W/m² | - |
| 1788243301 | 17.78° C | 81% | 1017.3 hPa | 0 mm | - | 0 W/m² | - |
| 1788242995 | 18.33° C | 82% | 1017.3 hPa | 0 mm | - | 0 W/m² | - |
| 1788242690 | 18.33° C | 82% | 1017.2 hPa | 0 mm | - | 0 W/m² | - |
| 1788242393 | 18.89° C | 82% | 1017.3 hPa | 0 mm | - | 0 W/m² | - |
| 1788242087 | 18.89° C | 82% | 1017.4 hPa | 0 mm | - | 0 W/m² | - |
| 1788241783 | 18.89° C | 82% | 1017.2 hPa | 0 mm | - | 0 W/m² | - |
| 1788241480 | 18.89° C | 81% | 1017.3 hPa | 0 mm | - | 0 W/m² | - |
| 1788241176 | 18.89° C | 81% | 1017.1 hPa | 0 mm | - | 0 W/m² | - |
| 1788240871 | 19.44° C | 81% | 1017.2 hPa | 0 mm | - | 0 W/m² | - |
| 1788240567 | 19.44° C | 80% | 1017.1 hPa | 0 mm | - | 0 W/m² | - |
| 1788240261 | 18.89° C | 80% | 1017.2 hPa | 0 mm | - | 0 W/m² | - |
| 1788239960 | 19.44° C | 80% | 1017.3 hPa | 0 mm | - | 0 W/m² | - |
| 1788239656 | 19.44° C | 79% | 1017.2 hPa | 0 mm | - | 0 W/m² | - |
| 1788239350 | 19.44° C | 78% | 1017.2 hPa | 0 mm | - | 0 W/m² | - |
| 1788239046 | 19.44° C | 77% | 1017.2 hPa | 0 mm | - | 0 W/m² | - |
| 1788238746 | 20° C | 76% | 1017.2 hPa | 0 mm | - | 0 W/m² | - |
| 1788238446 | 20° C | 75% | 1017.1 hPa | 0 mm | - | 0 W/m² | - |
| 1788238141 | 20° C | 73% | 1017.2 hPa | 0 mm | - | 0 W/m² | - |
| 1788237837 | 20° C | 72% | 1017.3 hPa | 0 mm | - | 0 W/m² | - |
| 1788237533 | 20° C | 72% | 1017.3 hPa | 0 mm | - | 0 W/m² | - |
* Rain latest hour (hover to see other rain measurements)
** Current wind speed in m/s (hover to see current wind gust speed)